Warroad, MN

8:45 AM CST on February 06, 2016 (GMT -0600)
Warroad International-Carlson

Weather History for KRRT - August, 2013

Change the Weather History Date:

Wednesday, August 28, 2013

  Actual Average Record
Temperature  
Mean Temperature 78 °F -  
Max Temperature 89 °F 76 °F 96 °F (1984)
Min Temperature 68 °F 52 °F 34 °F (1965)
Cooling Degree Days 14    
Growing Degree Days 28 (Base 50)    
Moisture  
Dew Point 69 °F    
Average Humidity 77    
Maximum Humidity 88    
Minimum Humidity 55    
Precipitation  
Precipitation 0.00 in - - ()
Sea Level Pressure  
Sea Level Pressure 29.97 in    
Wind  
Wind Speed 3 mph (South)    
Max Wind Speed 9 mph    
Max Gust Speed -    
Visibility 10 miles    
Events Rain    
Averages and records for this station are not official NWS values.
T = Trace of Precipitation, MM = Missing Value Source: NWS Daily Summary

Daily Weather History Graph

Daily Weather History Graph

Search for Another Location

Airport or City:

Trip Planner

Search our weather history database for the weather conditions in past years. The results will help you decide how hot, cold, wet, or windy it might be!

Date:

Astronomy

Aug. 28, 2013 Rise Set
Actual Time 6:32 AM CDT 8:11 PM CDT
Civil Twilight 5:59 AM CDT 8:44 PM CDT
Nautical Twilight 5:18 AM CDT 9:24 PM CDT
Astronomical Twilight 4:34 AM CDT 10:09 PM CDT
Moon No Moon Rise 3:04 PM CDT (8/28)
Length of Visible Light 14h 44m
Length of Day
13h 38m
Waning Gibbous, 47% of the Moon is Illuminated
Aug 28
Waning Gibbous
Sep 5
New
Sep 12
First Quarter
Sep 19
Full
Sep 26
Last Quarter

Hourly Weather History & Observations

Time (CDT) Temp. Heat Index Dew Point Humidity Pressure Visibility Wind Dir Wind Speed Gust Speed Precip Events Conditions
12:19 AM 71.6 °F - 66.2 °F 83% 29.93 in 10.0 mi Calm Calm - N/A   Clear
12:34 AM 71.6 °F - 66.2 °F 83% 29.94 in 10.0 mi Calm Calm - N/A   Clear
12:54 AM 71.6 °F - 66.2 °F 83% 29.94 in 10.0 mi Calm Calm - N/A   Clear
1:14 AM 71.6 °F - 66.2 °F 83% 29.95 in 10.0 mi Calm Calm - N/A   Clear
1:54 AM 68.0 °F - 64.4 °F 88% 29.94 in 10.0 mi Calm Calm - N/A   Scattered Clouds
2:14 AM 69.8 °F - 64.4 °F 83% 29.94 in 10.0 mi SSW 3.5 mph - N/A   Clear
2:33 AM 69.8 °F - 66.2 °F 88% 29.94 in 10.0 mi SSW 3.5 mph - N/A   Clear
2:54 AM 69.8 °F - 66.2 °F 88% 29.94 in 10.0 mi SSW 3.5 mph - N/A   Clear
3:14 AM 69.8 °F - 66.2 °F 88% 29.94 in 10.0 mi SSW 6.9 mph - N/A   Clear
3:33 AM 69.8 °F - 66.2 °F 88% 29.94 in 10.0 mi SSW 4.6 mph - N/A   Clear
3:54 AM 69.8 °F - 66.2 °F 88% 29.94 in 10.0 mi SSW 3.5 mph - N/A   Clear
4:14 AM 69.8 °F - 66.2 °F 88% 29.94 in 10.0 mi SSW 4.6 mph - N/A   Clear
4:33 AM 69.8 °F - 64.4 °F 83% 29.95 in 10.0 mi SSW 4.6 mph - N/A   Clear
4:54 AM 69.8 °F - 64.4 °F 83% 29.95 in 10.0 mi SSW 4.6 mph - N/A   Clear
5:13 AM 69.8 °F - 64.4 °F 83% 29.95 in 10.0 mi SW 5.8 mph - N/A   Clear
5:34 AM 69.8 °F - 64.4 °F 83% 29.95 in 10.0 mi SSW 5.8 mph - N/A   Scattered Clouds
5:54 AM 68.0 °F - 64.4 °F 88% 29.95 in 10.0 mi SSW 4.6 mph - N/A   Scattered Clouds
6:14 AM 68.0 °F - 64.4 °F 88% 29.96 in 10.0 mi SSW 3.5 mph - N/A   Clear
6:34 AM 68.0 °F - 64.4 °F 88% 29.96 in 10.0 mi SSW 3.5 mph - N/A   Scattered Clouds
6:53 AM 68.0 °F - 64.4 °F 88% 29.95 in 10.0 mi South 3.5 mph - N/A   Scattered Clouds
7:14 AM 68.0 °F - 64.4 °F 88% 29.96 in 10.0 mi SSW 4.6 mph - N/A   Clear
7:34 AM 69.8 °F - 64.4 °F 83% 29.97 in 10.0 mi SSW 5.8 mph - N/A   Clear
7:54 AM 69.8 °F - 66.2 °F 88% 29.97 in 10.0 mi SSW 3.5 mph - N/A   Clear
8:14 AM 71.6 °F - 68.0 °F 88% 29.97 in 10.0 mi Calm Calm - N/A   Clear
8:34 AM 73.4 °F - 68.0 °F 83% 29.97 in 10.0 mi SSW 3.5 mph - N/A   Clear
8:54 AM 73.4 °F - 68.0 °F 83% 29.97 in 10.0 mi Calm Calm - N/A   Clear
9:14 AM 73.4 °F - 69.8 °F 88% 29.98 in 10.0 mi WNW 4.6 mph - N/A   Clear
9:34 AM 73.4 °F - 69.8 °F 88% 29.98 in 10.0 mi West 3.5 mph - N/A   Clear
9:49 AM 75.2 °F - 69.8 °F 83% 29.98 in 10.0 mi North - - N/A   Clear
10:14 AM 77.0 °F - 69.8 °F 78% 29.99 in 10.0 mi Calm Calm - N/A   Clear
10:34 AM 78.8 °F - 71.6 °F 78% 29.99 in 10.0 mi Calm Calm - N/A   Clear
10:54 AM 80.6 °F 84.6 °F 71.6 °F 74% 29.99 in 10.0 mi Calm Calm - N/A   Clear
11:14 AM 82.4 °F 87.2 °F 71.6 °F 70% 29.99 in 10.0 mi South 3.5 mph - N/A   Clear
11:34 AM 84.2 °F 90.9 °F 73.4 °F 70% 29.99 in 10.0 mi South 3.5 mph - N/A   Clear
11:54 AM 84.2 °F 90.9 °F 73.4 °F 70% 29.99 in 10.0 mi Calm Calm - N/A   Clear
12:14 PM 84.2 °F 89.6 °F 71.6 °F 66% 29.99 in 10.0 mi SSW 5.8 mph - N/A   Clear
12:34 PM 86.0 °F 91.8 °F 71.6 °F 62% 29.99 in 10.0 mi SW 3.5 mph - N/A   Clear
12:53 PM 87.8 °F 95.6 °F 73.4 °F 62% 29.99 in 10.0 mi Calm Calm - N/A   Clear
1:13 PM 87.8 °F 95.6 °F 73.4 °F 62% 29.98 in 10.0 mi Calm Calm - N/A   Clear
1:34 PM 87.8 °F 95.6 °F 73.4 °F 62% 29.98 in 10.0 mi SW 4.6 mph - N/A   Clear
1:54 PM 87.8 °F 93.8 °F 71.6 °F 58% 29.98 in 10.0 mi SW 4.6 mph - N/A   Clear
2:13 PM 89.6 °F 96.2 °F 71.6 °F 55% 29.98 in 10.0 mi NW 4.6 mph - N/A   Clear
2:34 PM 87.8 °F 97.6 °F 75.2 °F 66% 29.98 in 10.0 mi ENE 6.9 mph - N/A   Clear
2:54 PM 86.0 °F 95.1 °F 75.2 °F 70% 29.98 in 10.0 mi East 9.2 mph - N/A   Clear
3:14 PM 84.2 °F 92.3 °F 75.2 °F 74% 29.98 in 10.0 mi NE 8.1 mph - N/A   Scattered Clouds
3:34 PM 82.4 °F 89.5 °F 75.2 °F 79% 29.98 in 10.0 mi NE 9.2 mph - N/A Rain Light Rain
3:54 PM 87.8 °F 93.8 °F 71.6 °F 58% 29.98 in 10.0 mi East 6.9 mph - N/A   Clear
4:14 PM 87.8 °F 93.8 °F 71.6 °F 58% 29.97 in 10.0 mi NE 8.1 mph - N/A   Clear
4:33 PM 87.8 °F 93.8 °F 71.6 °F 58% 29.97 in 10.0 mi ENE 5.8 mph - N/A   Clear
4:54 PM 87.8 °F 95.6 °F 73.4 °F 62% 29.97 in 10.0 mi ENE 5.8 mph - N/A   Clear
5:14 PM 87.8 °F 95.6 °F 73.4 °F 62% 29.97 in 10.0 mi ENE 3.5 mph - N/A   Clear
5:33 PM 87.8 °F 93.8 °F 71.6 °F 58% 29.97 in 10.0 mi ENE 3.5 mph - N/A   Clear
5:54 PM 87.8 °F 95.6 °F 73.4 °F 62% 29.97 in 10.0 mi ENE 4.6 mph - N/A   Clear
6:13 PM 87.8 °F 95.6 °F 73.4 °F 62% 29.97 in 10.0 mi East 3.5 mph - N/A   Clear
6:34 PM 86.0 °F 93.4 °F 73.4 °F 66% 29.97 in 10.0 mi Calm Calm - N/A   Clear
6:53 PM 84.2 °F 90.9 °F 73.4 °F 70% 29.98 in 10.0 mi ESE 3.5 mph - N/A   Clear
7:14 PM 82.4 °F 87.2 °F 71.6 °F 70% 29.98 in 10.0 mi East 3.5 mph - N/A   Clear
7:34 PM 78.8 °F - 71.6 °F 78% 29.98 in 10.0 mi SSW 4.6 mph - N/A   Clear
7:53 PM 78.8 °F - 71.6 °F 78% 29.99 in 10.0 mi Calm Calm - N/A   Clear
8:14 PM 77.0 °F - 69.8 °F 78% 30.00 in 10.0 mi South 3.5 mph - N/A   Clear
8:34 PM 77.0 °F - 69.8 °F 78% 30.00 in 10.0 mi Calm Calm - N/A   Clear
8:54 PM 75.2 °F - 69.8 °F 83% 30.00 in 10.0 mi SSE 4.6 mph - N/A   Clear
9:14 PM 75.2 °F - 69.8 °F 83% 30.01 in 10.0 mi Calm Calm - N/A   Clear
9:33 PM 75.2 °F - 69.8 °F 83% 30.00 in 10.0 mi South 4.6 mph - N/A   Clear
9:54 PM 73.4 °F - 69.8 °F 88% 29.99 in 10.0 mi SSW 3.5 mph - N/A   Clear
10:14 PM 73.4 °F - 68.0 °F 83% 29.99 in 10.0 mi SSW 3.5 mph - N/A   Clear
10:34 PM 73.4 °F - 66.2 °F 78% 29.99 in 10.0 mi Calm Calm - N/A   Clear
10:54 PM 71.6 °F - 66.2 °F 83% 29.99 in 10.0 mi Calm Calm - N/A   Clear
11:14 PM 69.8 °F - 66.2 °F 88% 29.99 in 10.0 mi Calm Calm - N/A   Clear
11:34 PM 69.8 °F - 64.4 °F 83% 29.99 in 10.0 mi Calm Calm - N/A   Clear
11:54 PM 68.0 °F - 64.4 °F 88% 29.99 in 10.0 mi Calm Calm - N/A   Clear